Regional Weather Roundup
Issued by NWS Little Rock, AR

Home | Current Version | Previous Version | Text Only | Print | Product List | Glossary On
Versions: 1 2 3 4 5 6 7 8 9 10 11 12 13 14 15 16 17 18 19 20 21 22 23 24 25 26 27 28 29 30 31 32 33 34 35 36 37 38 39 40 41 42 43 44 45 46 47 48 49 50
000
ASUS44 KLZK 211205
RWRLZK

WEATHER ROUNDUP FOR ARKANSAS
NATIONAL WEATHER SERVICE LITTLE ROCK AR
700 AM CDT TUE APR 21 2015

NOTE: "FAIR" INDICATES FEW OR NO CLOUDS BELOW 12,000 FEET WITH NO
SIGNIFICANT WEATHER AND/OR OBSTRUCTIONS TO VISIBILITY.

ARZ001-003-010-029-211300-
NORTHWEST ARKANSAS

CITY           SKY/WX    TMP DP  RH WIND       PRES   REMARKS
FAYETTEVILLE   PTCLDY    45  36  70 S8        29.97R
6HR MIN TEMP:  39; 6HR MAX TEMP:  45;

FORT SMITH     PTCLDY    46  42  86 E5        29.98F
6HR MIN TEMP:  44; 6HR MAX TEMP:  50;

HARRISON       CLEAR     45  34  65 S5        29.95R
6HR MIN TEMP:  41; 6HR MAX TEMP:  48;

BENTONVILLE    CLEAR     43  34  70 SW5       29.96S
6HR MIN TEMP:  41; 6HR MAX TEMP:  45;

ROGERS         CLEAR     46  35  65 SW6       29.97R
6HR MIN TEMP:  43; 6HR MAX TEMP:  46;

SILOAM SPGS    PTCLDY    45  30  57 CALM      29.98R
6HR MIN TEMP:  43; 6HR MAX TEMP:  46;

HIGHFILL       CLEAR     45  34  65 SW6       29.96R
6HR MIN TEMP:  43; 6HR MAX TEMP:  45;

SPRINGDALE     CLEAR     41  36  81 CALM      29.98R
$$

ARZ004-005-016-211300-
NORTH CENTRAL ARKANSAS

CITY           SKY/WX    TMP DP  RH WIND       PRES   REMARKS
BATESVILLE     CLEAR     48  36  61 W5        29.99R
6HR MIN TEMP:  43; 6HR MAX TEMP:  48;

FLIPPIN        CLEAR     45 N/A N/A SW3       29.94R
6HR MIN TEMP:  41; 6HR MAX TEMP:  48;

MTN HOME       CLEAR     41  34  76 S3        29.94S
6HR MIN TEMP:  40; 6HR MAX TEMP:  44;

$$

ARZ040-041-211300-
WEST CENTRAL ARKANSAS

CITY           SKY/WX    TMP DP  RH WIND       PRES   REMARKS
MENA           MOCLDY    43  41  93 CALM      30.02F
MOUNT IDA      CLEAR     39  37  92 CALM      30.00R
6HR MIN TEMP:  39; 6HR MAX TEMP:  44;

$$

ARZ009-017-025-026-028-211300-
NORTHEAST ARKANSAS

CITY           SKY/WX    TMP DP  RH WIND       PRES   REMARKS
CORNING          N/A     46  39  76 SW7       29.97R
JONESBORO      CLEAR     46  40  79 SW5       29.99R
6HR MIN TEMP:  42; 6HR MAX TEMP:  47;

NEWPORT        CLEAR     49  40  71 SW7       30.01R
6HR MIN TEMP:  45; 6HR MAX TEMP:  52;

WALNUT RIDGE   PTCLDY    46  37  71 SW9       29.97R
6HR MIN TEMP:  45; 6HR MAX TEMP:  50;

BLYTHEVILLE    CLEAR     46  41  82 SW7       29.99R
6HR MIN TEMP:  45; 6HR MAX TEMP:  53;

$$

ARZ022-023-033-042-044-211300-
CENTRAL ARKANSAS

CITY           SKY/WX    TMP DP  RH WIND       PRES   REMARKS
LITTLE ROCK    PTCLDY    46  40  79 CALM      30.02R
6HR MIN TEMP:  46; 6HR MAX TEMP:  51;

N LITTLE ROCK    N/A     50  40  67 SW5       30.02R
6HR MIN TEMP:  49; 6HR MAX TEMP:  53;

JACKSONVILLE   PTCLDY    41  40  94 CALM      30.00S
6HR MIN TEMP:  40; 6HR MAX TEMP:  47;

SEARCY         PTCLDY    41  39  93 CALM      30.03R
6HR MIN TEMP:  40; 6HR MAX TEMP:  47;

HOT SPRINGS    PTCLDY    42  39  89 CALM      30.03R
6HR MIN TEMP:  41; 6HR MAX TEMP:  48;

RUSSELLVILLE   PTCLDY    42  41  96 CALM      30.00R
6HR MIN TEMP:  41; 6HR MAX TEMP:  44;

CLINTON        FAIR      37  37 100 CALM      30.02R
$$

ARZ036-211300-
EAST ARKANSAS

CITY           SKY/WX    TMP DP  RH WIND       PRES   REMARKS
WEST MEMPHIS   CLEAR     47  42  83 S6        30.00R
6HR MIN TEMP:  44; 6HR MAX TEMP:  50;

$$

ARZ050-053-066-070-073-211300-
SOUTHWEST ARKANSAS

CITY           SKY/WX    TMP DP  RH WIND       PRES   REMARKS
CAMDEN         CLEAR     41  39  93 CALM      30.05R
TEXARKANA      CLEAR     44  41  89 CALM      30.03S
6HR MIN TEMP:  44; 6HR MAX TEMP:  52;

EL DORADO      CLEAR     43  41  93 CALM      30.05R
6HR MIN TEMP:  43; 6HR MAX TEMP:  50;

DE QUEEN       PTCLDY    42  41  96 CALM      30.02S
6HR MIN TEMP:  41; 6HR MAX TEMP:  45;

$$

ARZ056-057-069-211300-
SOUTHEAST ARKANSAS

CITY           SKY/WX    TMP DP  RH WIND       PRES   REMARKS
PINE BLUFF     CLEAR     45  42  89 S3        30.03S
6HR MIN TEMP:  44; 6HR MAX TEMP:  54;

STUTTGART      CLEAR     48  43  81 S6        30.03R
6HR MIN TEMP:  46; 6HR MAX TEMP:  52;

MONTICELLO     CLEAR     46  43  89 CALM      30.04R
6HR MIN TEMP:  44; 6HR MAX TEMP:  53;


$$




USA.gov is the U.S. government's official web portal to all federal, state and local government web resources and services.